Cherry Point, NC

6:21 PM EDT on August 17, 2017 (GMT -0400)
Cherry Point Marine Corps Air Station

Weather History for KNKT - February, 2014

Change the Weather History Date:

Thursday, February 20, 2014

  Actual Average Record
Temperature  
Mean Temperature 62 °F -  
Max Temperature 73 °F 56 °F 73 °F (2014)
Min Temperature 51 °F 36 °F 12 °F (2015)
Degree Days  
Heating Degree Days 3    
Growing Degree Days 12 (Base 50)    
Moisture  
Dew Point 51 °F    
Average Humidity 68    
Maximum Humidity 84    
Minimum Humidity 47    
Precipitation  
Precipitation 0.00 in - - ()
Sea Level Pressure  
Sea Level Pressure 30.15 in    
Wind  
Wind Speed 6 mph (SSE)    
Max Wind Speed 15 mph    
Max Gust Speed 23 mph    
Visibility 10 miles    
Events      
Averages and records for this station are not official NWS values.
T = Trace of Precipitation, MM = Missing Value Source: NWS Daily Summary

Daily Weather History Graph

Daily Weather History Graph

Search for Another Location

Airport or City:

Trip Planner

Search our weather history database for the weather conditions in past years. The results will help you decide how hot, cold, wet, or windy it might be!

Date:

Astronomy

Feb. 20, 2014 Rise Set
Actual Time 6:47 AM EST 5:55 PM EST
Civil Twilight 6:22 AM EST 6:20 PM EST
Nautical Twilight 5:52 AM EST 6:50 PM EST
Astronomical Twilight 5:23 AM EST 7:19 PM EST
Moon 11:32 PM EST (2/20) 9:43 AM EST (2/20)
Length of Visible Light 11h 58m
Length of Day
11h 07m
Waning Gibbous, 71% of the Moon is Illuminated
Feb 20
Waning Gibbous
Feb 22
Last Quarter
Mar 1
New
Mar 8
First Quarter
Mar 16
Full

Hourly Weather History & Observations

Time (EST) Temp. Dew Point Humidity Pressure Visibility Wind Dir Wind Speed Gust Speed Precip Events Conditions
12:54 AM 57.0 °F 44.1 °F 62% 30.11 in 10.0 mi SSW 3.5 mph - N/A   Clear
1:54 AM 54.0 °F 44.1 °F 69% 30.12 in 10.0 mi Calm Calm - N/A   Scattered Clouds
2:54 AM 51.1 °F 44.1 °F 77% 30.12 in 10.0 mi Calm Calm - N/A   Clear
3:54 AM 54.0 °F 45.0 °F 72% 30.17 in 10.0 mi NNE 3.5 mph - N/A   Overcast
4:54 AM 55.0 °F 35.1 °F 47% 30.18 in 10.0 mi ENE 15.0 mph 23.0 mph N/A   Clear
5:54 AM 52.0 °F 37.0 °F 57% 30.21 in 10.0 mi ENE 9.2 mph - N/A   Scattered Clouds
6:54 AM 51.1 °F 37.9 °F 61% 30.20 in 10.0 mi ENE 5.8 mph - N/A   Scattered Clouds
7:54 AM 52.0 °F 39.0 °F 61% 30.22 in 10.0 mi East 6.9 mph - N/A   Mostly Cloudy
8:54 AM 54.0 °F 41.0 °F 62% 30.22 in 10.0 mi ENE 5.8 mph - N/A   Mostly Cloudy
9:54 AM 57.9 °F 44.1 °F 60% 30.20 in 10.0 mi East 3.5 mph - N/A   Mostly Cloudy
10:54 AM 64.0 °F 46.0 °F 52% 30.20 in 10.0 mi NNE 6.9 mph - N/A   Mostly Cloudy
11:54 AM 64.9 °F 46.9 °F 52% 30.19 in 10.0 mi NE 4.6 mph - N/A   Mostly Cloudy
12:54 PM 72.0 °F 52.0 °F 49% 30.15 in 10.0 mi ESE 3.5 mph - N/A   Mostly Cloudy
1:54 PM 73.9 °F 55.9 °F 53% 30.13 in 10.0 mi SSW 11.5 mph - N/A   Mostly Cloudy
2:54 PM 73.0 °F 59.0 °F 61% 30.12 in 10.0 mi SSW 13.8 mph 23.0 mph N/A   Mostly Cloudy
3:54 PM 71.1 °F 60.1 °F 68% 30.12 in 10.0 mi SSW 10.4 mph 19.6 mph N/A   Mostly Cloudy
4:54 PM - - N/A% 30.14 in 10.0 mi South 6.9 mph - N/A   Mostly Cloudy
5:54 PM 66.9 °F 61.0 °F 81% 30.13 in 10.0 mi South 10.4 mph - N/A   Mostly Cloudy
6:54 PM 66.9 °F 62.1 °F 84% 30.13 in 10.0 mi SSW 11.5 mph - N/A   Mostly Cloudy
7:54 PM 66.9 °F 61.0 °F 81% 30.13 in 10.0 mi SSW 12.7 mph 20.7 mph N/A   Partly Cloudy
8:28 PM 66.0 °F 61.0 °F 84% 30.14 in 10.0 mi SSW 9.2 mph - N/A   Mostly Cloudy
8:54 PM 64.9 °F 60.1 °F 84% 30.12 in 10.0 mi SSW 9.2 mph - N/A   Mostly Cloudy
9:54 PM 64.9 °F 60.1 °F 84% 30.12 in 10.0 mi South 13.8 mph 18.4 mph N/A   Mostly Cloudy
10:54 PM 64.9 °F 60.1 °F 84% 30.11 in 10.0 mi South 10.4 mph 18.4 mph N/A   Mostly Cloudy
11:54 PM 66.0 °F 61.0 °F 84% 30.10 in 10.0 mi SSW 10.4 mph 19.6 mph N/A   Mostly Cloudy